Location: Key Biscayne
(25.6930°N, 80.1630°W)
Time: 01:58:21
(UTC-05:00)

CZ-2D R/B - Visible Passes

Search period start: 04 March 2015 00:00
Search period end: 14 March 2015 01:00
Orbit: 532 x 549 km, 97.6° (Epoch: 03 March)

Date Brightness Start Highest point End Pass type
(mag) Time Alt. Az. Time Alt. Az. Time Alt. Az.
04 Mar 3.5 20:04:11 59° NNW 20:04:11 59° NNW 20:07:22 10° NNW visible
05 Mar 3.3 19:56:46 62° NNE 19:56:46 62° NNE 20:00:09 10° N visible
06 Mar 3.3 19:49:21 53° ENE 19:49:21 53° ENE 19:52:54 10° N visible
07 Mar 3.6 19:41:55 42° ENE 19:41:56 42° ENE 19:45:36 10° N visible
08 Mar 3.9 20:34:29 32° E 20:34:44 33° ENE 20:38:14 10° N visible
09 Mar 4.2 20:27:02 25° E 20:27:31 26° ENE 20:30:49 10° NNE visible
09 Mar 6.4 22:02:33 12° W 22:02:33 12° W 22:03:48 10° WNW visible
10 Mar 4.5 20:19:36 20° E 20:20:18 21° ENE 20:23:18 10° NNE visible
10 Mar 6.1 21:55:06 16° W 21:55:06 16° W 21:57:12 10° WNW visible
11 Mar 4.8 20:12:09 16° E 20:13:05 17° ENE 20:15:42 10° NNE visible
11 Mar 5.8 21:47:40 20° W 21:47:40 20° W 21:50:23 10° NW visible
12 Mar 5.0 20:04:42 12° E 20:05:51 14° ENE 20:07:55 10° NE visible
12 Mar 5.4 21:40:12 25° W 21:40:13 25° W 21:43:26 10° NW visible
13 Mar 5.2 19:57:46 10° E 19:58:38 11° ENE 19:59:43 10° NE visible
13 Mar 4.9 21:32:45 32° WSW 21:32:55 32° W 21:36:24 10° NW visible
